EN

Hourly Weather Belen

Today, 27 November, Friday

Time Temperature Precipitation Wind Pressure Humidity
00:00 +11°C° 0.6 mm 0 mps 543 mmHg 93%
01:00 +11°C° 0.6 mm 0 mps 543 mmHg 93%
02:00 +10°C° 0 mm 0 mps 542 mmHg 93%
03:00 +10°C° 0 mm 0 mps 542 mmHg 93%
04:00 +9°C° 0 mm 0 mps 542 mmHg 94%
05:00 +10°C° 0 mm 0 mps 543 mmHg 93%
06:00 +10°C° 0 mm 0 mps 543 mmHg 92%
07:00 +11°C° 0 mm 0 mps 544 mmHg 91%
08:00 +13°C° 0.2 mm 0 mps 545 mmHg 84%
09:00 +15°C° 0.2 mm 0 mps 546 mmHg 77%
10:00 +17°C° 0.2 mm 0 mps 548 mmHg 71%
11:00 +19°C° 1.1 mm 1 mps 547 mmHg 75%
12:00 +18°C° 1.1 mm 1 mps 546 mmHg 79%
13:00 +18°C° 1.1 mm 1 mps 545 mmHg 83%
14:00 +16°C° 1.6 mm 1 mps 544 mmHg 86%
15:00 +16°C° 1.6 mm 1 mps 544 mmHg 88%
16:00 +15°C° 1.6 mm 1 mps 543 mmHg 91%
17:00 +14°C° 2.6 mm 1 mps 543 mmHg 93%
18:00 +12°C° 2.6 mm 0 mps 543 mmHg 95%
19:00 +12°C° 2.6 mm 0 mps 543 mmHg 97%
20:00 +11°C° 2.8 mm 0 mps 543 mmHg 97%
21:00 +11°C° 2.8 mm 0 mps 543 mmHg 96%
22:00 +11°C° 2.8 mm 1 mps 543 mmHg 96%
23:00 +11°C° 0.7 mm 1 mps 543 mmHg 96%

Tomorrow, 28 November, Saturday

Time Temperature Precipitation Wind Pressure Humidity
00:00 +11°C° 0.7 mm 1 mps 543 mmHg 95%
01:00 +11°C° 0.7 mm 1 mps 542 mmHg 95%
02:00 +10°C° 0.1 mm 0 mps 542 mmHg 95%
03:00 +10°C° 0.1 mm 0 mps 542 mmHg 94%
04:00 +10°C° 0.1 mm 0 mps 542 mmHg 94%
05:00 +10°C° 0 mm 0 mps 543 mmHg 93%
06:00 +11°C° 0 mm 0 mps 544 mmHg 91%
07:00 +11°C° 0 mm 0 mps 544 mmHg 90%
08:00 +13°C° 0.1 mm 0 mps 546 mmHg 84%
09:00 +15°C° 0.1 mm 0 mps 547 mmHg 77%
10:00 +19°C° 0.1 mm 1 mps 548 mmHg 70%
11:00 +18°C° 0.8 mm 1 mps 547 mmHg 75%
12:00 +18°C° 0.8 mm 1 mps 546 mmHg 80%
13:00 +16°C° 0.8 mm 1 mps 545 mmHg 85%
14:00 +15°C° 1.6 mm 1 mps 544 mmHg 87%
15:00 +15°C° 1.6 mm 1 mps 544 mmHg 90%
16:00 +14°C° 1.6 mm 1 mps 543 mmHg 92%
17:00 +14°C° 4 mm 1 mps 543 mmHg 94%
18:00 +13°C° 4 mm 1 mps 543 mmHg 95%
19:00 +12°C° 4 mm 1 mps 543 mmHg 96%
20:00 +11°C° 1.2 mm 0 mps 544 mmHg 96%
21:00 +11°C° 1.2 mm 0 mps 544 mmHg 96%
22:00 +11°C° 1.2 mm 0 mps 544 mmHg 96%
23:00 +11°C° 0.3 mm 0 mps 544 mmHg 96%

Day after tomorrow, 29 November, Sunday

Time Temperature Precipitation Wind Pressure Humidity
00:00 +10°C° 0.3 mm 0 mps 544 mmHg 96%
01:00 +10°C° 0.3 mm 0 mps 543 mmHg 96%
02:00 +10°C° 0.3 mm 0 mps 543 mmHg 96%
03:00 +10°C° 0.3 mm 0 mps 543 mmHg 96%
04:00 +10°C° 0.3 mm 0 mps 543 mmHg 96%
05:00 +10°C° 0 mm 0 mps 543 mmHg 96%
06:00 +11°C° 0 mm 0 mps 544 mmHg 95%
07:00 +11°C° 0 mm 0 mps 545 mmHg 94%
08:00 +12°C° 0.2 mm 0 mps 545 mmHg 92%
09:00 +12°C° 0.2 mm 0 mps 546 mmHg 91%
10:00 +13°C° 0.2 mm 0 mps 546 mmHg 89%
11:00 +14°C° 0.6 mm 1 mps 546 mmHg 88%
12:00 +15°C° 0.6 mm 1 mps 545 mmHg 87%
13:00 +15°C° 0.6 mm 1 mps 545 mmHg 86%
14:00 +15°C° 0.6 mm 1 mps 545 mmHg 87%
15:00 +15°C° 0.6 mm 1 mps 544 mmHg 88%
16:00 +14°C° 0.6 mm 0 mps 544 mmHg 88%
17:00 +13°C° 0.5 mm 0 mps 544 mmHg 91%
18:00 +12°C° 0.5 mm 0 mps 544 mmHg 93%
19:00 +11°C° 0.5 mm 0 mps 543 mmHg 95%
20:00 +10°C° 0.4 mm 0 mps 544 mmHg 95%
21:00 +10°C° 0.4 mm 0 mps 544 mmHg 96%
22:00 +10°C° 0.4 mm 0 mps 544 mmHg 96%
23:00 +10°C° 0.4 mm 0 mps 544 mmHg 96%

30 November, Monday

Time Temperature Precipitation Wind Pressure Humidity
00:00 +10°C° 0.4 mm 0 mps 544 mmHg 96%
01:00 +10°C° 0.4 mm 0 mps 543 mmHg 96%
02:00 +10°C° 0.2 mm 0 mps 543 mmHg 96%
03:00 +10°C° 0.2 mm 0 mps 543 mmHg 96%
04:00 +10°C° 0.2 mm 0 mps 543 mmHg 96%
05:00 +10°C° 0.1 mm 0 mps 544 mmHg 95%
06:00 +11°C° 0.1 mm 0 mps 544 mmHg 94%
07:00 +11°C° 0.1 mm 0 mps 545 mmHg 93%
08:00 +13°C° 0.4 mm 0 mps 546 mmHg 88%
09:00 +16°C° 0.4 mm 1 mps 547 mmHg 83%
10:00 +19°C° 0.4 mm 1 mps 548 mmHg 78%
11:00 +18°C° 1.2 mm 1 mps 547 mmHg 80%
12:00 +18°C° 1.2 mm 1 mps 546 mmHg 82%
13:00 +18°C° 1.2 mm 1 mps 545 mmHg 84%
14:00 +16°C° 1.7 mm 1 mps 544 mmHg 86%
15:00 +16°C° 1.7 mm 1 mps 544 mmHg 88%
16:00 +15°C° 1.7 mm 1 mps 543 mmHg 90%
17:00 +14°C° 1.3 mm 1 mps 543 mmHg 92%
18:00 +13°C° 1.3 mm 1 mps 543 mmHg 94%
19:00 +11°C° 1.3 mm 0 mps 543 mmHg 96%
20:00 +11°C° 1.2 mm 0 mps 543 mmHg 97%
21:00 +11°C° 1.2 mm 0 mps 544 mmHg 97%
22:00 +11°C° 1.2 mm 0 mps 544 mmHg 97%
23:00 +11°C° 0.9 mm 0 mps 544 mmHg 98%

1 December, Tuesday

Time Temperature Precipitation Wind Pressure Humidity
00:00 +11°C° 0.9 mm 0 mps 543 mmHg 98%
01:00 +11°C° 0.9 mm 0 mps 543 mmHg 98%
02:00 +10°C° 0.3 mm 0 mps 543 mmHg 98%
03:00 +10°C° 0.3 mm 0 mps 543 mmHg 98%
04:00 +10°C° 0.3 mm 0 mps 543 mmHg 97%
05:00 +10°C° 0 mm 0 mps 543 mmHg 96%
06:00 +11°C° 0 mm 0 mps 544 mmHg 95%
07:00 +11°C° 0 mm 0 mps 545 mmHg 94%
08:00 +14°C° 0.2 mm 1 mps 546 mmHg 88%
09:00 +15°C° 0.2 mm 1 mps 547 mmHg 81%
10:00 +18°C° 0.2 mm 1 mps 548 mmHg 75%
11:00 +18°C° 0.7 mm 1 mps 547 mmHg 75%
12:00 +19°C° 0.7 mm 1 mps 546 mmHg 74%
13:00 +19°C° 0.7 mm 1 mps 546 mmHg 73%
14:00 +18°C° 0.9 mm 1 mps 545 mmHg 77%
15:00 +16°C° 0.9 mm 1 mps 544 mmHg 80%
16:00 +16°C° 0.9 mm 1 mps 544 mmHg 83%
17:00 +14°C° 0.7 mm 1 mps 543 mmHg 87%
18:00 +13°C° 0.7 mm 1 mps 543 mmHg 91%
19:00 +11°C° 0.7 mm 0 mps 543 mmHg 95%
20:00 +10°C° 0.2 mm 0 mps 543 mmHg 95%
21:00 +10°C° 0.2 mm 0 mps 543 mmHg 95%
22:00 +10°C° 0.2 mm 1 mps 543 mmHg 95%
23:00 +10°C° 0 mm 1 mps 543 mmHg 94%

2 December, Wednesday

Time Temperature Precipitation Wind Pressure Humidity
00:00 +10°C° 0 mm 1 mps 542 mmHg 94%
01:00 +9°C° 0 mm 1 mps 542 mmHg 94%
02:00 +9°C° 0.1 mm 1 mps 542 mmHg 94%
03:00 +9°C° 0.1 mm 1 mps 542 mmHg 94%
04:00 +9°C° 0.1 mm 1 mps 541 mmHg 94%
05:00 +10°C° 0 mm 1 mps 542 mmHg 93%
06:00 +11°C° 0 mm 1 mps 543 mmHg 92%
07:00 +11°C° 0 mm 1 mps 544 mmHg 90%
08:00 +13°C° 0.1 mm 1 mps 545 mmHg 84%
09:00 +15°C° 0.1 mm 1 mps 547 mmHg 77%
10:00 +18°C° 0.1 mm 1 mps 548 mmHg 70%
11:00 +18°C° 0.8 mm 1 mps 547 mmHg 72%
12:00 +18°C° 0.8 mm 1 mps 547 mmHg 74%
13:00 +18°C° 0.8 mm 1 mps 546 mmHg 77%
14:00 +18°C° 0.9 mm 1 mps 546 mmHg 79%
15:00 +16°C° 0.9 mm 1 mps 545 mmHg 81%
16:00 +16°C° 0.9 mm 1 mps 544 mmHg 84%
17:00 +14°C° 0.6 mm 1 mps 544 mmHg 87%
18:00 +13°C° 0.6 mm 1 mps 544 mmHg 91%
19:00 +12°C° 0.6 mm 1 mps 543 mmHg 95%
20:00 +11°C° 0.2 mm 1 mps 543 mmHg 95%
21:00 +11°C° 0.2 mm 1 mps 543 mmHg 94%
22:00 +10°C° 0.2 mm 1 mps 543 mmHg 94%
23:00 +10°C° 0 mm 1 mps 543 mmHg 94%
Show more

We Need Your Consent

Meteoprog and our Service Providers may store and access personal data such as cookies, device identifiers or other similar technologies on your device and process such data to personalise content and ads, as well as provide social media features and to analyse the traffic.

  • Store and/or access information on your device

    Cookies, device identifiers or other information can be stored or accessed on your device for the purposes indicated above.

  • Personalised ads and content, ad and content measurement, audience insights, and products development

    Ads and content can be personalised based on a profile. More data can be added to better personalise ads and content. Ad and content performance can be measured. Insights about the audience who saw the ads and content can be derived. Such data can be used to develop or improve user’s experience, systems and software.

By clicking ‘I Agree’ you will allow the use of indicated cookies, device identifiers, web beacons or other similar technologies. Your settings can be changed in the browser on your device.

For certain purposes, legitimate interests may be relied on, rather than consent. You can read more about this in our Privacy and Cookie Policy.